When you browse on this site, cookies collect data to enhance your experience and personalize the content and advertising you see.
Visit our Privacy Policy to learn more. By continuing to use the site, you agree to this use of cookies and data.
  • In Schweiz
  • Länderverzeichnis
  • Für 7 Tage
  • Wassertemperatur
  • Wetterkarte
  • Widgets
  • user-avatar
    Anmelden

    Stündliche Wetter Sozopol

    Heute, 17 Oktober, Donnerstag

    Zeit Temperatur Niederschläge Wind Luftdruck Luftfeuchtigkeit
    00:00 +14°C° 0 mm 1 m/S 760 mmHg 93%
    01:00 +14°C° 0 mm 1 m/S 760 mmHg 93%
    02:00 +14°C° 0 mm 1 m/S 760 mmHg 93%
    03:00 +14°C° 0 mm 1 m/S 759 mmHg 93%
    04:00 +14°C° 0 mm 1 m/S 759 mmHg 93%
    05:00 +14°C° 0 mm 1 m/S 759 mmHg 93%
    06:00 +15°C° 0 mm 1 m/S 759 mmHg 90%
    07:00 +15°C° 0 mm 1 m/S 760 mmHg 87%
    08:00 +16°C° 0 mm 1 m/S 760 mmHg 84%
    09:00 +19°C° 0 mm 1 m/S 760 mmHg 76%
    10:00 +21°C° 0 mm 1 m/S 760 mmHg 67%
    11:00 +23°C° 0 mm 1 m/S 760 mmHg 58%
    12:00 +23°C° 0 mm 1 m/S 760 mmHg 57%
    13:00 +24°C° 0 mm 2 m/S 760 mmHg 57%
    14:00 +24°C° 0 mm 2 m/S 759 mmHg 56%
    15:00 +23°C° 0 mm 2 m/S 759 mmHg 64%
    16:00 +20°C° 0 mm 2 m/S 759 mmHg 71%
    17:00 +19°C° 0 mm 2 m/S 759 mmHg 79%
    18:00 +19°C° 0 mm 1 m/S 759 mmHg 82%
    19:00 +18°C° 0 mm 1 m/S 760 mmHg 84%
    20:00 +16°C° 0 mm 1 m/S 760 mmHg 87%
    21:00 +15°C° 0 mm 0 m/S 760 mmHg 86%
    22:00 +15°C° 0 mm 0 m/S 760 mmHg 85%
    23:00 +14°C° 0 mm 0 m/S 760 mmHg 84%

    Morgen, 18 Oktober, Freitag

    Zeit Temperatur Niederschläge Wind Luftdruck Luftfeuchtigkeit
    00:00 +14°C° 0 mm 0 m/S 760 mmHg 83%
    01:00 +14°C° 0 mm 0 m/S 760 mmHg 82%
    02:00 +15°C° 0 mm 1 m/S 760 mmHg 82%
    03:00 +15°C° 0 mm 1 m/S 760 mmHg 82%
    04:00 +14°C° 0 mm 1 m/S 760 mmHg 82%
    05:00 +14°C° 0 mm 1 m/S 760 mmHg 81%
    06:00 +15°C° 0 mm 1 m/S 760 mmHg 77%
    07:00 +16°C° 0 mm 1 m/S 760 mmHg 73%
    08:00 +18°C° 0 mm 1 m/S 760 mmHg 69%
    09:00 +20°C° 0 mm 1 m/S 760 mmHg 63%
    10:00 +22°C° 0 mm 1 m/S 760 mmHg 56%
    11:00 +24°C° 0 mm 1 m/S 760 mmHg 49%
    12:00 +24°C° 0 mm 1 m/S 760 mmHg 49%
    13:00 +24°C° 0 mm 2 m/S 760 mmHg 49%
    14:00 +25°C° 0 mm 2 m/S 759 mmHg 48%
    15:00 +23°C° 0 mm 2 m/S 759 mmHg 56%
    16:00 +20°C° 0 mm 2 m/S 759 mmHg 63%
    17:00 +19°C° 0 mm 2 m/S 759 mmHg 71%
    18:00 +19°C° 0 mm 1 m/S 759 mmHg 74%
    19:00 +18°C° 0 mm 1 m/S 759 mmHg 76%
    20:00 +16°C° 0 mm 1 m/S 759 mmHg 79%
    21:00 +16°C° 0 mm 1 m/S 759 mmHg 78%
    22:00 +15°C° 0 mm 1 m/S 760 mmHg 77%
    23:00 +15°C° 0 mm 1 m/S 760 mmHg 77%

    übermorgen, 19 Oktober, Samstag

    Zeit Temperatur Niederschläge Wind Luftdruck Luftfeuchtigkeit
    00:00 +15°C° 0 mm 1 m/S 760 mmHg 75%
    01:00 +15°C° 0 mm 1 m/S 760 mmHg 74%
    02:00 +15°C° 0 mm 1 m/S 759 mmHg 73%
    03:00 +13°C° 0 mm 0 m/S 760 mmHg 72%
    04:00 +13°C° 0 mm 0 m/S 760 mmHg 71%
    05:00 +13°C° 0 mm 0 m/S 760 mmHg 70%
    06:00 +14°C° 0 mm 0 m/S 760 mmHg 67%
    07:00 +15°C° 0 mm 0 m/S 760 mmHg 63%
    08:00 +16°C° 0 mm 0 m/S 760 mmHg 60%
    09:00 +18°C° 0 mm 0 m/S 760 mmHg 55%
    10:00 +22°C° 0 mm 1 m/S 760 mmHg 50%
    11:00 +24°C° 0 mm 1 m/S 760 mmHg 45%
    12:00 +24°C° 0 mm 1 m/S 760 mmHg 45%
    13:00 +25°C° 0 mm 2 m/S 760 mmHg 45%
    14:00 +25°C° 0 mm 2 m/S 760 mmHg 45%
    15:00 +23°C° 0 mm 2 m/S 760 mmHg 53%
    16:00 +21°C° 0 mm 2 m/S 760 mmHg 62%
    17:00 +19°C° 0 mm 2 m/S 760 mmHg 70%
    18:00 +18°C° 0 mm 2 m/S 760 mmHg 74%
    19:00 +17°C° 0 mm 2 m/S 760 mmHg 78%
    20:00 +16°C° 0 mm 2 m/S 760 mmHg 82%
    21:00 +16°C° 0 mm 1 m/S 761 mmHg 81%
    22:00 +15°C° 0 mm 1 m/S 761 mmHg 81%
    23:00 +15°C° 0 mm 1 m/S 761 mmHg 80%

    20 Oktober, Sonntag

    Zeit Temperatur Niederschläge Wind Luftdruck Luftfeuchtigkeit
    00:00 +15°C° 0 mm 1 m/S 761 mmHg 79%
    01:00 +14°C° 0 mm 0 m/S 761 mmHg 77%
    02:00 +14°C° 0 mm 0 m/S 761 mmHg 75%
    03:00 +13°C° 0 mm 0 m/S 761 mmHg 74%
    04:00 +13°C° 0 mm 0 m/S 761 mmHg 73%
    05:00 +13°C° 0 mm 0 m/S 761 mmHg 72%
    06:00 +14°C° 0 mm 0 m/S 761 mmHg 68%
    07:00 +15°C° 0 mm 0 m/S 761 mmHg 64%
    08:00 +16°C° 0 mm 0 m/S 762 mmHg 60%
    09:00 +20°C° 0 mm 1 m/S 762 mmHg 55%
    10:00 +22°C° 0 mm 1 m/S 762 mmHg 50%
    11:00 +24°C° 0 mm 1 m/S 762 mmHg 45%
    12:00 +24°C° 0 mm 2 m/S 762 mmHg 45%
    13:00 +24°C° 0 mm 2 m/S 761 mmHg 45%
    14:00 +25°C° 0 mm 2 m/S 761 mmHg 46%
    15:00 +23°C° 0 mm 2 m/S 761 mmHg 53%
    16:00 +20°C° 0 mm 2 m/S 761 mmHg 60%
    17:00 +19°C° 0 mm 2 m/S 761 mmHg 67%
    18:00 +18°C° 0 mm 2 m/S 761 mmHg 71%
    19:00 +17°C° 0 mm 2 m/S 761 mmHg 75%
    20:00 +16°C° 0 mm 1 m/S 762 mmHg 79%
    21:00 +15°C° 0 mm 1 m/S 762 mmHg 79%
    22:00 +15°C° 0 mm 1 m/S 762 mmHg 79%
    23:00 +15°C° 0 mm 1 m/S 762 mmHg 80%

    21 Oktober, Montag

    Zeit Temperatur Niederschläge Wind Luftdruck Luftfeuchtigkeit
    00:00 +14°C° 0 mm 1 m/S 762 mmHg 80%
    01:00 +14°C° 0 mm 1 m/S 762 mmHg 80%
    02:00 +13°C° 0 mm 0 m/S 762 mmHg 81%
    03:00 +14°C° 0 mm 1 m/S 762 mmHg 81%
    04:00 +14°C° 0 mm 1 m/S 762 mmHg 81%
    05:00 +13°C° 0 mm 1 m/S 762 mmHg 81%
    06:00 +14°C° 0 mm 1 m/S 762 mmHg 78%
    07:00 +15°C° 0 mm 1 m/S 762 mmHg 75%
    08:00 +16°C° 0 mm 1 m/S 762 mmHg 72%
    09:00 +19°C° 0 mm 1 m/S 763 mmHg 66%
    10:00 +20°C° 0 mm 2 m/S 763 mmHg 59%
    11:00 +23°C° 0 mm 2 m/S 763 mmHg 52%
    12:00 +22°C° 0 mm 3 m/S 763 mmHg 51%
    13:00 +22°C° 0 mm 3 m/S 763 mmHg 50%
    14:00 +22°C° 0 mm 3 m/S 762 mmHg 49%
    15:00 +21°C° 0 mm 3 m/S 762 mmHg 56%
    16:00 +19°C° 0 mm 3 m/S 762 mmHg 64%
    17:00 +18°C° 0 mm 3 m/S 762 mmHg 72%
    18:00 +17°C° 0 mm 2 m/S 762 mmHg 76%
    19:00 +16°C° 0 mm 2 m/S 762 mmHg 81%
    20:00 +15°C° 0 mm 2 m/S 762 mmHg 86%
    21:00 +15°C° 0 mm 2 m/S 762 mmHg 87%
    22:00 +15°C° 0 mm 2 m/S 762 mmHg 88%
    23:00 +15°C° 0 mm 2 m/S 763 mmHg 89%

    22 Oktober, Dienstag

    Zeit Temperatur Niederschläge Wind Luftdruck Luftfeuchtigkeit
    00:00 +15°C° 0 mm 2 m/S 763 mmHg 89%
    01:00 +15°C° 0 mm 2 m/S 762 mmHg 89%
    02:00 +15°C° 0 mm 2 m/S 762 mmHg 89%
    03:00 +14°C° 0 mm 2 m/S 762 mmHg 89%
    04:00 +14°C° 0 mm 2 m/S 762 mmHg 88%
    05:00 +14°C° 0 mm 2 m/S 762 mmHg 87%
    06:00 +15°C° 0 mm 2 m/S 762 mmHg 83%
    07:00 +15°C° 0 mm 2 m/S 762 mmHg 79%
    08:00 +16°C° 0 mm 2 m/S 762 mmHg 75%
    09:00 +18°C° 0 mm 2 m/S 762 mmHg 67%
    10:00 +20°C° 0 mm 2 m/S 762 mmHg 58%
    11:00 +23°C° 0 mm 2 m/S 762 mmHg 50%
    12:00 +22°C° 0 mm 3 m/S 762 mmHg 50%
    13:00 +22°C° 0 mm 4 m/S 762 mmHg 49%
    14:00 +22°C° 0 mm 5 m/S 761 mmHg 49%
    15:00 +21°C° 0 mm 5 m/S 761 mmHg 60%
    16:00 +19°C° 0 mm 4 m/S 761 mmHg 70%
    17:00 +18°C° 0 mm 4 m/S 761 mmHg 80%
    18:00 +17°C° 0 mm 4 m/S 761 mmHg 85%
    19:00 +16°C° 0 mm 3 m/S 761 mmHg 89%
    20:00 +14°C° 0 mm 3 m/S 761 mmHg 93%
    21:00 +14°C° 0 mm 3 m/S 761 mmHg 93%
    22:00 +14°C° 0 mm 3 m/S 761 mmHg 94%
    23:00 +14°C° 0 mm 3 m/S 761 mmHg 94%
    Mehr zeigen